Zurück zum Katalog

ARIANE 44LP DEB

AktivGTO
NORAD 25543·DEBRIS·🇫🇷 France

Gestartet Dec 11, 1988 von Guiana Space Centre

Loading…

TLE

VeraltetSource: Space-Track

Epoche: Sep 13, 2026, 16:25 UTC

1 25543U 88109K   26256.68467328  .00000047  00000-0  89317-3 0  9992
2 25543   6.5398 188.2794 7174422 148.4613 287.9087  2.30749820238723

Verfolge ARIANE 44LP DEB in Echtzeit mit AllMySat

Download on the App Store